This demonstration page uses our WeatherBlox Daily Observations layout. Learn more.

Left ArrowRight Arrow

39.01783, -85.05884

Hourly Observations for October 8, 2020

Temp ( °F °C ) Dew Point ( °F °C ) Humidity (%) Winds ( mph kmh ) Pressure ( in mb ) Visibility ( mi km ) Precip ( " mm )
12:52 am 00:52 Clear 63 17.2 40 4.4 43 43 NNE 6 9 30.04 1017 10 16.0934 0 0
1:52 am 01:52 Clear 60 15.6 39 3.9 46 46 NNE 5 7 30.04 1017 10 16.0934 0 0
2:52 am 02:52 Clear 60 15.6 39 3.9 46 46 ENE 5 7 30.06 1018 10 16.0934 0 0
3:52 am 03:52 Clear 57 13.9 40 4.4 53 53 Calm 30.07 1018 10 16.0934 0 0
4:52 am 04:52 Clear 51 10.6 44 6.7 77 77 Calm 30.08 1019 10 16.0934 0 0
5:52 am 05:52 Clear 51 10.6 41 5 69 69 Calm 30.1 1019 10 16.0934 0 0
6:52 am 06:52 Clear 57 13.9 41 5 55 55 ENE 5 7 30.1 1019 10 16.0934 0 0
7:52 am 07:52 Sunny 53 11.7 44 6.7 72 72 E 3 6 30.11 1020 8 12.87472 0 0
8:52 am 08:52 Sunny 56 13.3 45 7.2 67 67 E 3 6 30.14 1021 10 16.0934 0 0
9:52 am 09:52 Sunny 62 16.7 42 5.6 48 48 ESE 5 7 30.15 1021 10 16.0934 0 0
10:52 am 10:52 Sunny 66 18.9 40 4.4 39 39 SE 9 15 30.16 1021 10 16.0934 0 0
11:52 am 11:52 Mostly Sunny 69 20.6 39 3.9 33 33 ESE 7 11 30.17 1022 10 16.0934 0 0
12:52 pm 12:52 Mostly Sunny 72 22.2 39 3.9 30 30 VRB 6 9 30.16 1021 10 16.0934 0 0
1:52 pm 13:52 Mostly Sunny 74 23.3 39 3.9 28 28 Calm 30.14 1021 10 16.0934 0 0
2:52 pm 14:52 Mostly Sunny 74 23.3 39 3.9 28 28 Calm 30.12 1020 10 16.0934 0 0
3:52 pm 15:52 Mostly Sunny 75 23.9 39 3.9 27 27 SSW 8 13 30.11 1020 10 16.0934 0 0
4:52 pm 16:52 Partly Cloudy 76 24.4 39 3.9 26 26 Calm 30.11 1020 10 16.0934 0 0
5:52 pm 17:52 Partly Cloudy 76 24.4 39 3.9 26 26 Calm 30.11 1020 10 16.0934 0 0
6:52 pm 18:52 Partly Cloudy 71 21.7 40 4.4 32 32 Calm 30.11 1020 10 16.0934 0 0
7:52 pm 19:52 Mostly Clear 67 19.4 43 6.1 42 42 Calm 30.12 1020 10 16.0934 0 0
8:52 pm 20:52 Mostly Clear 61 16.1 45 7.2 56 56 Calm 30.12 1020 10 16.0934 0 0
9:52 pm 21:52 Mostly Cloudy 61 16.1 44 6.7 54 54 Calm 30.13 1020 10 16.0934 0 0
10:52 pm 22:52 Cloudy 60 15.6 44 6.7 56 56 S 3 6 30.13 1020 10 16.0934 0 0
11:52 pm 23:52 Mostly Cloudy 57 13.9 45 7.2 64 64 S 5 7 30.13 1020 10 16.0934 0 0

Powered by AerisWeather